Regional Weather Roundup
Issued by NWS

Home | Current Version | Previous Version | Graphics & Text | Print | Product List | Glossary On
Versions: 1 2 3 4 5 6 7 8 9 10 11 12 13 14 15 16 17 18 19 20 21 22 23 24 25 26 27 28 29 30 31 32 33 34 35 36 37 38 39 40 41 42 43 44 45 46 47 48 49 50
000
ASUS45 KBOU 010807
RWRCO

WEATHER ROUNDUP FOR COLORADO
NATIONAL WEATHER SERVICE DENVER/BOULDER CO
200 AM MDT MON SEP 01 2014

NOTE: "FAIR" INDICATES FEW OR NO CLOUDS BELOW 12000 FEET WITH NO
SIGNIFICANT WEATHER AND/OR OBSTRUCTIONS TO VISIBILITY.

COZ001>005-013-030-031-010900-
...NORTHWEST COLORADO...

CITY           SKY/WX    TMP DP  RH WIND       PRES   REMARKS
CRAIG          CLEAR     45  39  79 CALM      30.13S
HAYDEN         CLEAR     48  37  66 SW3       30.14S
MEEKER         CLEAR     48  41  76 SE3       30.14S
MOUNT WERNER   NOT AVBL
STEAMBOAT SPGS CLEAR     44  41  89 CALM      30.16S
WALDEN         PTCLDY    37  34  87 SE6       30.19S
$$

COZ006>008-011-010900-
...WEST CENTRAL VALLEYS...

CITY           SKY/WX    TMP DP  RH WIND       PRES   REMARKS
GRAND JUNCTION CLEAR     54  42  64 CALM      30.02R
MONTROSE       CLEAR     55  41  59 S6        30.11R
EAGLE          CLEAR     50  43  76 CALM      30.16R
RIFLE          CLEAR     53  43  68 E6        30.08R
DELTA          CLEAR     64  37  37 N3        30.04R
NUCLA          CLEAR     59  34  38 E10       30.12R
$$

COZ017>023-064>068-010900-
...SOUTHWEST COLORADO...

CITY           SKY/WX    TMP DP  RH WIND       PRES   REMARKS
DURANGO        CLEAR     54  37  52 N3        30.12R
CORTEZ         CLEAR     55  40  56 NW3       30.09R
PAGOSA SPRINGS NOT AVBL
TELLURIDE      CLEAR     52  36  54 E3        30.30S
WOLF CREEK PAS PTCLDY    45  28  53 SW21G31   30.46R
$$

COZ009-010-012-014-032>034-037-058>063-010900-
...CENTRAL COLORADO...

CITY           SKY/WX    TMP DP  RH WIND       PRES   REMARKS
ASPEN          PTCLDY    47  38  71 SW9       30.20R
BUENA VISTA    CLEAR     51  33  49 E5        30.16S
COPPER MTN     CLEAR     45  32  61 S9        30.42F
BERTHOUD PASS  FAIR      34  32  93 W18G29    30.42F WCI  23
COTTONWOOD PAS CLEAR     59  21  23 W7G18     30.27S
GUNNISON       PTCLDY    45  36  70 CALM      30.21R
KREMMLING      CLEAR     39  36  87 CALM      30.20S
LEADVILLE      MOCLDY    46  31  55 NE6       30.29S
MONARCH PASS   CLEAR     41  30  65 SW26G33   30.51S
SALIDA         CLEAR     56  38  50 CALM      30.20R
SUNLIGHT       CLEAR     45  36  70 SW5       30.37S
WILKERSON PASS NOT AVBL
$$

COZ069>075-010900-
...SAN LUIS VALLEY/SANGRE DE CRISTO MOUNTAINS...

CITY           SKY/WX    TMP DP  RH WIND       PRES   REMARKS
ALAMOSA        CLEAR     49  35  58 S9        30.15S
LA VETA PASS   NOT AVBL
SAGUACHE       NOT AVBL
$$

COZ035-036-038>040-010900-
...NORTHERN COLORADO FRONT RANGE...

CITY           SKY/WX    TMP DP  RH WIND       PRES   REMARKS
DENVER INTL AP PTCLDY    52  46  80 E8        30.05R
DMNS CITY PARK   N/A     55  46  70 E3        30.07R
AURORA         PTCLDY    54  43  66 E7        30.08R
FRONT RANGE AP NOT AVBL
ERIE MUNI ARPT PTCLDY    52  50  93 SW3       30.06S
BOULDER MUN AP CLEAR     55  46  71 W3        30.07R
CENTENNIAL     MOCLDY    56  44  64 SE7       30.08R
BROOMFIELD     CLEAR     55  46  71 E3        30.09R
FORT COLLINS   PTCLDY    54  46  76 S5        30.06R
LONGMONT       PTCLDY    54  49  81 CALM      30.07S
$$

COZ041-046-047-076>085-087-088-010900-
...PIKES PEAK/PALMER DIVIDE AND SOUTHERN FOOTHILLS...

CITY           SKY/WX    TMP DP  RH WIND       PRES   REMARKS
COLO. SPRINGS  PTCLDY    54  47  77 E3        30.09R
A. F. ACADEMY  MOCLDY    48  46  91 N6        30.10R
ELLICOTT       CLEAR     49  46  90 CALM      30.08R
FALCON         CLOUDY    53  48  83 CALM      30.12S
FORT CARSON    CLEAR     59  47  66 S6        30.07R
LIMON          PTCLDY    47  45  93 N7        30.06R
MONUMENT HILL  PTCLDY    50  45  81 NE5       30.13R
TRINIDAD       CLEAR     56  47  71 NW5       30.05R
$$

COZ042>045-048>051-090-091-010900-
...NORTHEAST COLORADO...

CITY           SKY/WX    TMP DP  RH WIND       PRES   REMARKS
GREELEY ARPT   CLOUDY    55  45  67 SW5       30.05R
AKRON          CLEAR     51  47  86 NW9       30.01R
BURLINGTON     CLEAR     55  49  80 NW7       29.99R
WRAY             N/A     55  50  83 S5        29.97
STERLING       CLEAR     55  50  82 CALM      29.98S
HOLYOKE        CLEAR     54  50  87 NW6       29.96S
FORT MORGAN    PTCLDY    55  43  65 CALM      30.03R
$$

COZ086-089-092>099-010900-
...SOUTHEAST COLORADO...

CITY           SKY/WX    TMP DP  RH WIND       PRES   REMARKS
PUEBLO         CLEAR     57  46  66 N3        30.00R
LA JUNTA       CLEAR     57  50  77 NW6       29.96S
LAMAR          CLEAR     58  53  84 CALM      29.92S
SPRINGFIELD      N/A     57  52  83 NW7       29.96R
$$


USA.gov is the U.S. government's official web portal to all federal, state and local government web resources and services.